STARLINK-1171, 45062

Orbit data source: Space-Track

STARLINK-1171, 45062 is a payload satellite owned by SpaceX/Seattle (US) in LEO that was launched on Wed, 29 Jan 2020 UTC via an FALCON 9 launch vehicle from the Air Force Eastern Test Range (AFETR). Payload-class satellites include a variety of spacecraft equipped with specific instruments for various scientific and technological missions. These include communications satellites like Starlink; space stations such as the ISS; scientific satellites like the Hubble; Earth observation satellites from companies like Planet Labs, Umbra, and HawkEye 360; GPS; miniature CubeSats for education and research; and military/defense satellites.

Loading next visibility...
Identifier
45062, 2020-006U
Orbit
LEO
Country
Flag of USUS
Related business
Manufacturer
SpaceX/Seattle
Mission
Partially operational Commercial Communications
Bus & Motor
STARLINK, Unknown motor
Mass
260 kg wet, ~248 kg dry
Launch date (UTC)
2020-01-29 (6 years ago)
Launch vehicle
FALCON 9
Launch site
Air Force Eastern Test Range (AFETR)
Object type
Payload
Rocket body
Debris
Shape & HBR
Box + 1 Pan, 10.1 m
Radar Cross Section
13.562 m², Large (>1 m²)

Expand to show TLE details & history
Last TLE update: 4 hours ago

TLE from 4 hours ago
0 STARLINK-1171
1 45062U 20006U   26127.95747890  .00055408  00000-0  44248-3 0  9999
2 45062  53.0436 317.6503 0002849 165.5339 194.5760 15.70595584346284
Epoch: 2026-05-07T22:58Z
TLE epoch observation values (Epoch: 2026-05-07T22:58:46.176Z)
Latitude
-0.00003°
Longitude
107.16171°
Altitude
359.954 km
Speed
7.693 km/s
True Right ascension
21h 10m 36s
True Declination
0° 00' 00"
Sunlit
Object was in daylight at epoch
Visualization orbit readout
Latitude
Unknown
Longitude
Unknown
Altitude
Unknown
Speed
Unknown
Apparent Right ascension
Unknown
Apparent Declination
Unknown
Sunlit
N/A
Visualization observer readout
Local Sidereal Time
10:49:30
Azimuth
Unknown
Elevation
Unknown
Doppler factor
Unknown
Orbital elements
Apogee altitude
359.393 km
Perigee altitude
355.555 km
Semi-major axis
6,735.611 km
Eccentricity
0.00028
Inclination
53.0436°
RAAN
317.6503°
Arg. of periapsis
165.5339°
True anomaly
194.56779°
Mean anomaly
194.576°
Eccentric anomaly
194.57189°
Mean motion
3.92625 °/min
Orbital period
91.69 mins
BSTAR
0.00044248
Loading maneuver chart data...
Computing Atmospheric mass density...

Documentation

Showing up to 5 results
|